Location: ????????
(55.3155°N, 39.2900°E)
Time: 09:09:21
(UTC+00:00)

Cosmos 1766 - Pass Details

Date: 14 April 2024
Orbit: 487 x 505 km, 82.5° (Epoch: 19 May)

Event Time Altitude Azimuth Distance (km) Brightness Sun altitude
Rises 01:13:48 0° 349° (N) 2,589 7.1 -9.4°
Reaches altitude 10° 01:15:57 10° 352° (N) 1,698 6.2 -9.2°
Maximum altitude 01:19:39 67° 76° (ENE) 536 3.5 -8.7°
Drops below altitude 10° 01:23:18 10° 160° (SSE) 1,676 5.7 -8.3°
Sets 01:25:24 0° 163° (SSE) 2,551 6.6 -8.0°
